Location: Bonneuil
(46.1010°N, 2.9693°E)
Time: 19:53:24
(UTC+00:00)

STARLINK-1211 - Pass Details

Date: 09 April 2020
Orbit: 549 x 550 km, 53.0° (Epoch: 03 June)

Event Time Altitude Azimuth Distance (km) Brightness Sun altitude
Rises 19:55:29 0° 298° (WNW) 2,667 9.1 -15.0°
Reaches altitude 10° 19:57:44 10° 293° (WNW) 1,776 7.6 -15.3°
Maximum altitude 20:01:37 49° 219° (SW) 685 4.1 -15.9°
Enters shadow 20:03:30 27° 157° (SSE) 1,049 4.6 -16.2°
